+ View the NASA Portal
+ Center for Near-Earth Object Studies
IMPORTANT:
The SSD Announcement email list is now available. Major changes are coming in the near future, including possible hostname and/or URL changes. To be notified of such changes, subscribe to this email list.
Please visit
this page
for more details.
Don't show this message again
JPL Small-Body Database Browser
Search:
[
help
]
212625 (2006 TZ26)
Classification:
Main-belt Asteroid
SPK-ID:
2212625
[
Ephemeris
|
Orbit Diagram
|
Orbital Elements
|
Mission Design
|
Physical Parameters
|
Discovery Circumstances
|
Close-Approach Data
]
[ show orbit diagram ]
Orbital Elements at Epoch 2458600.5 (2019-Apr-27.0) TDB
Reference:
JPL 15
(heliocentric ecliptic J2000)
Element
Value
Uncertainty (1-sigma)
Units
e
.07823138070616997
5.6445e-08
a
3.088386607402201
3.2812e-08
au
q
2.846777858950683
1.7648e-07
au
i
5.982775769748088
6.634e-06
deg
node
32.08046808565472
5.1721e-05
deg
peri
337.0599580915741
6.3092e-05
deg
M
133.1882824569199
3.6251e-05
deg
t
p
2457867.068707953935
(2017-Apr-23.56870795)
0.00019772
TDB
period
1982.421127939587
5.43
3.1592e-05
8.649e-08
d
yr
n
.1815961275464024
2.894e-09
deg/d
Q
3.329995355853719
3.5378e-08
au
Orbit Determination Parameters
# obs. used (total)
238
data-arc span
8504 days (23.28 yr)
first obs. used
1995-10-28
last obs. used
2019-02-08
planetary ephem.
DE431
SB-pert. ephem.
SB431-N16
condition code
0
norm. resid. RMS
.50254
source
ORB
producer
Otto Matic
solution date
2019-Jul-14 08:12:27
Additional Information
Earth MOID
= 1.84672 au
Jupiter MOID
= 2.10619 au
T_jup
= 3.213
[ show covariance matrix ]
[
Ephemeris
|
Orbit Diagram
|
Orbital Elements
|
Mission Design
|
Physical Parameters
|
Discovery Circumstances
|
Close-Approach Data
]
Physical Parameter Table
Parameter
Symbol
Value
Units
Sigma
Reference
Notes
absolute magnitude
H
16.0
n/a
MPO433390
212625 (2006 TZ26)
Discovered 2006-Oct-12 by Spacewatch at Kitt Peak
Reference:
20090409/Numbers.arc
Last Updated:
2009-04-10
[ hide close-approach data ]
Close-Approach Data
...sorted by
Date/Time (TDB)
Date/Time (TDB)
Time Uncertainty
(days_HH:MM)
Body
Nominal Distance (au)
Minimum Distance (au)
Maximum Distance (au)
V-relative (km/s)
V-infinity (km/s)
JD (TDB)
Time Uncertainty (minutes)
Semi-major axis (km)
Semi-minor axis (km)
range-LOV angle (deg)
N-sigma
BP
Orbit Ref.
Reference
Modified
2053-Nov-23 12:11
00:02
Inter
0.0389512590112822
0.0389475649079194
0.0389549588366326
5.96608469034007
5.96608462734482
2471230.007851889
2.16609935914678
808.05936609331
59.814434699419
77.5078433701807
95085.2555375596
T
15
CATAB v2.0e-lin.ifort 2019-Jul-14 08:12:35
2019-Jul-14 08:12
Alternate Designations
2006 TZ26
= 1995 VO2
[
Ephemeris
|
Orbit Diagram
|
Orbital Elements
|
Mission Design
|
Physical Parameters
|
Discovery Circumstances
|
Close-Approach Data
]
2019-Dec-08 05:35 UT
(server date/time)
Site Manager:
Ryan S. Park
Webmaster
:
Alan B. Chamberlin